Hourly Weather Rudovo

Today, 20 April, Tuesday

Time Temperature Precipitation Wind Pressure Humidity
00:00 +5°C° 0.1 mm 4 mps 740 mmHg 94%
01:00 +5°C° 0.1 mm 4 mps 739 mmHg 94%
02:00 +5°C° 0 mm 4 mps 739 mmHg 94%
03:00 +5°C° 0.2 mm 4 mps 739 mmHg 94%
04:00 +5°C° 0.2 mm 4 mps 739 mmHg 94%
05:00 +5°C° 0.2 mm 4 mps 738 mmHg 95%
06:00 +6°C° 0.1 mm 5 mps 738 mmHg 93%
07:00 +6°C° 0.1 mm 5 mps 738 mmHg 92%
08:00 +6°C° 0.1 mm 5 mps 738 mmHg 91%
09:00 +5°C° 0.1 mm 6 mps 738 mmHg 90%
10:00 +7°C° 0.1 mm 6 mps 737 mmHg 89%
11:00 +7°C° 0.1 mm 6 mps 737 mmHg 88%
12:00 +7°C° 0 mm 6 mps 737 mmHg 88%
13:00 +7°C° 0 mm 6 mps 736 mmHg 87%
14:00 +5°C° 0 mm 6 mps 736 mmHg 87%
15:00 +5°C° 0 mm 6 mps 735 mmHg 88%
16:00 +5°C° 0 mm 6 mps 735 mmHg 88%
17:00 +4°C° 0 mm 6 mps 734 mmHg 89%
18:00 +4°C° 0.1 mm 6 mps 734 mmHg 91%
19:00 +3°C° 0.1 mm 6 mps 733 mmHg 92%
20:00 +3°C° 0.1 mm 5 mps 733 mmHg 93%
21:00 +3°C° 0.2 mm 5 mps 732 mmHg 93%
22:00 +2°C° 0.2 mm 5 mps 732 mmHg 94%
23:00 +2°C° 0.2 mm 5 mps 731 mmHg 94%

Tomorrow, 21 April, Wednesday

Time Temperature Precipitation Wind Pressure Humidity
00:00 +3°C° 0.1 mm 4 mps 731 mmHg 95%
01:00 +1°C° 0.1 mm 4 mps 731 mmHg 95%
02:00 +2°C° 0.1 mm 3 mps 731 mmHg 96%
03:00 +2°C° 0 mm 3 mps 731 mmHg 96%
04:00 +2°C° 0 mm 3 mps 731 mmHg 97%
05:00 +2°C° 0 mm 3 mps 732 mmHg 97%
06:00 +2°C° 0 mm 3 mps 732 mmHg 96%
07:00 +2°C° 0 mm 3 mps 733 mmHg 95%
08:00 +2°C° 0 mm 3 mps 733 mmHg 95%
09:00 +3°C° 0 mm 3 mps 734 mmHg 91%
10:00 +4°C° 0 mm 4 mps 734 mmHg 88%
11:00 +4°C° 0 mm 4 mps 734 mmHg 85%
12:00 +5°C° 0.1 mm 4 mps 735 mmHg 83%
13:00 +5°C° 0.1 mm 4 mps 735 mmHg 82%
14:00 +6°C° 0.1 mm 5 mps 736 mmHg 80%
15:00 +5°C° 0.7 mm 4 mps 736 mmHg 83%
16:00 +5°C° 0.7 mm 4 mps 736 mmHg 87%
17:00 +4°C° 0.7 mm 3 mps 737 mmHg 90%
18:00 +4°C° 0.4 mm 3 mps 737 mmHg 91%
19:00 +4°C° 0.4 mm 3 mps 738 mmHg 91%
20:00 +4°C° 0.4 mm 3 mps 738 mmHg 92%
21:00 +3°C° 0 mm 3 mps 738 mmHg 93%
22:00 +3°C° 0 mm 3 mps 738 mmHg 94%
23:00 +3°C° 0 mm 3 mps 739 mmHg 95%

Day after tomorrow, 22 April, Thursday

Time Temperature Precipitation Wind Pressure Humidity
00:00 +3°C° 0 mm 3 mps 739 mmHg 94%
01:00 +3°C° 0 mm 3 mps 739 mmHg 93%
02:00 +3°C° 0 mm 3 mps 739 mmHg 93%
03:00 +3°C° 0 mm 3 mps 739 mmHg 93%
04:00 +2°C° 0 mm 3 mps 739 mmHg 94%
05:00 +2°C° 0 mm 3 mps 740 mmHg 94%
06:00 +3°C° 0 mm 3 mps 740 mmHg 91%
07:00 +5°C° 0 mm 3 mps 740 mmHg 87%
08:00 +6°C° 0 mm 4 mps 740 mmHg 83%
09:00 +7°C° 0 mm 4 mps 741 mmHg 80%
10:00 +8°C° 0 mm 5 mps 741 mmHg 78%
11:00 +9°C° 0 mm 6 mps 741 mmHg 75%
12:00 +9°C° 0.3 mm 5 mps 741 mmHg 75%
13:00 +10°C° 0.3 mm 5 mps 741 mmHg 75%
14:00 +10°C° 0.3 mm 5 mps 741 mmHg 75%
15:00 +10°C° 0.4 mm 5 mps 741 mmHg 74%
16:00 +12°C° 0.4 mm 5 mps 740 mmHg 73%
17:00 +12°C° 0.4 mm 5 mps 740 mmHg 73%
18:00 +11°C° 0.2 mm 4 mps 740 mmHg 77%
19:00 +10°C° 0.2 mm 4 mps 741 mmHg 82%
20:00 +9°C° 0.2 mm 3 mps 741 mmHg 86%
21:00 +8°C° 0.1 mm 3 mps 741 mmHg 87%
22:00 +8°C° 0.1 mm 3 mps 741 mmHg 88%
23:00 +7°C° 0.1 mm 3 mps 741 mmHg 89%

23 April, Friday

Time Temperature Precipitation Wind Pressure Humidity
00:00 +7°C° 0.2 mm 3 mps 740 mmHg 89%
01:00 +6°C° 0.2 mm 4 mps 740 mmHg 89%
02:00 +6°C° 0.2 mm 4 mps 740 mmHg 89%
03:00 +6°C° 0.1 mm 4 mps 740 mmHg 88%
04:00 +6°C° 0.1 mm 4 mps 740 mmHg 87%
05:00 +6°C° 0.1 mm 5 mps 740 mmHg 87%
06:00 +8°C° 0 mm 5 mps 740 mmHg 82%
07:00 +9°C° 0 mm 6 mps 740 mmHg 77%
08:00 +11°C° 0 mm 6 mps 740 mmHg 72%
09:00 +12°C° 0 mm 7 mps 740 mmHg 67%
10:00 +14°C° 0 mm 7 mps 740 mmHg 61%
11:00 +15°C° 0 mm 8 mps 740 mmHg 56%
12:00 +15°C° 0.6 mm 8 mps 739 mmHg 57%
13:00 +15°C° 0.6 mm 8 mps 739 mmHg 58%
14:00 +15°C° 0.6 mm 8 mps 738 mmHg 59%
15:00 +14°C° 1 mm 7 mps 738 mmHg 68%
16:00 +11°C° 1 mm 7 mps 738 mmHg 77%
17:00 +9°C° 1 mm 6 mps 738 mmHg 86%
18:00 +8°C° 1 mm 5 mps 738 mmHg 88%
19:00 +7°C° 1 mm 4 mps 738 mmHg 90%
20:00 +7°C° 1 mm 3 mps 739 mmHg 91%
21:00 +5°C° 1.7 mm 4 mps 738 mmHg 92%
22:00 +5°C° 1.7 mm 4 mps 738 mmHg 93%
23:00 +3°C° 1.7 mm 5 mps 738 mmHg 94%

24 April, Saturday

Time Temperature Precipitation Wind Pressure Humidity
00:00 +4°C° 0.6 mm 4 mps 738 mmHg 94%
01:00 +3°C° 0.6 mm 4 mps 738 mmHg 93%
02:00 +3°C° 0.6 mm 3 mps 738 mmHg 93%
03:00 +3°C° 0 mm 3 mps 738 mmHg 93%
04:00 +3°C° 0 mm 3 mps 738 mmHg 93%
05:00 +3°C° 0 mm 3 mps 738 mmHg 92%
06:00 +4°C° 0.1 mm 3 mps 738 mmHg 86%
07:00 +4°C° 0.1 mm 3 mps 738 mmHg 80%
08:00 +5°C° 0.1 mm 4 mps 738 mmHg 74%
09:00 +6°C° 0.1 mm 4 mps 738 mmHg 66%
10:00 +7°C° 0.1 mm 4 mps 738 mmHg 58%
11:00 +8°C° 0.1 mm 4 mps 738 mmHg 51%
12:00 +8°C° 0.1 mm 4 mps 738 mmHg 48%
13:00 +10°C° 0.1 mm 4 mps 738 mmHg 45%
14:00 +10°C° 0.1 mm 4 mps 738 mmHg 42%
15:00 +8°C° 0.1 mm 4 mps 738 mmHg 47%
16:00 +8°C° 0.1 mm 4 mps 738 mmHg 52%
17:00 +7°C° 0.1 mm 4 mps 738 mmHg 57%
18:00 +6°C° 0.2 mm 4 mps 738 mmHg 64%
19:00 +5°C° 0.2 mm 4 mps 738 mmHg 72%
20:00 +4°C° 0.2 mm 3 mps 739 mmHg 79%
21:00 +3°C° 0 mm 3 mps 739 mmHg 81%
22:00 +3°C° 0 mm 3 mps 739 mmHg 83%
23:00 +3°C° 0 mm 3 mps 739 mmHg 84%

25 April, Sunday

Time Temperature Precipitation Wind Pressure Humidity
00:00 +2°C° 0 mm 3 mps 739 mmHg 85%
01:00 +1°C° 0 mm 3 mps 739 mmHg 87%
02:00 +1°C° 0 mm 3 mps 739 mmHg 88%
03:00 0°C° 0 mm 3 mps 739 mmHg 89%
04:00 0°C° 0 mm 3 mps 739 mmHg 89%
05:00 0°C° 0 mm 3 mps 739 mmHg 89%
06:00 0°C° 0 mm 4 mps 739 mmHg 82%
07:00 +3°C° 0 mm 4 mps 739 mmHg 76%
08:00 +4°C° 0 mm 4 mps 740 mmHg 69%
09:00 +5°C° 0.1 mm 5 mps 740 mmHg 64%
10:00 +6°C° 0.1 mm 5 mps 739 mmHg 59%
11:00 +7°C° 0.1 mm 6 mps 739 mmHg 54%
12:00 +7°C° 0.3 mm 6 mps 739 mmHg 58%
13:00 +6°C° 0.3 mm 7 mps 739 mmHg 61%
14:00 +6°C° 0.3 mm 7 mps 739 mmHg 64%
15:00 +5°C° 0.2 mm 6 mps 739 mmHg 65%
16:00 +5°C° 0.2 mm 6 mps 739 mmHg 66%
17:00 +6°C° 0.2 mm 5 mps 739 mmHg 67%
18:00 +5°C° 0 mm 4 mps 739 mmHg 72%
19:00 +4°C° 0 mm 3 mps 739 mmHg 77%
20:00 +4°C° 0 mm 2 mps 739 mmHg 82%
21:00 +3°C° 0 mm 2 mps 739 mmHg 83%
22:00 +2°C° 0 mm 2 mps 739 mmHg 84%
23:00 +2°C° 0 mm 2 mps 739 mmHg 85%
Show more